Tracking 28790 objects as of 19-Apr-2024
HD Live streaming from Space Station
objects crossing your sky now

STARLINK-2198

Track STARLINK-2198 now!
10-day predictions
STARLINK-2198 is classified as:


NORAD ID: 47775
Int'l Code: 2021-017BF
Perigee: 553.4 km
Apogee: 555.4 km
Inclination: 53.1 °
Period: 95.6 minutes
Semi major axis: 6925 km
RCS: Unknown
Launch date: March 4, 2021
Source: United States (US)
Launch site: AIR FORCE EASTERN TEST RANGE (AFETR)
Your satellite tracking list
Your tracking list is empty




NASA's NSSDC Master Catalog

Two Line Element Set (TLE):
1 47775U 21017BF  24110.14910662 -.00002836  00000-0 -17167-3 0  9994
2 47775  53.0540  77.0852 0001382  95.0406 265.0741 15.06384448173038
Source of the keplerian elements: AFSPC